Home > Weather > Cranbrook > Past weeks

Flag for Canada Weather for the Past 2 Weeks in Cranbrook, British Columbia, Canada

Now
34 °F

Sprinkles. Mostly cloudy.


Feels Like: 31 °F
Forecast: 30 / 44 °F
Wind: 3 mph from Southwest

Location: Cranbrook

Current Time: Feb 12, 2016 at 10:26:56 AM

Latest Report: Feb 12, 2016 at 10:00 AM


Visibility: 15 mi

Pressure: 30.24 "Hg (26.92 "Hg at 933m altitude)

Humidity: 93%

Dew point: 32 °F

Location of CranbrookLocation

Historic Weather in Cranbrook — Graph

°F

Cranbrook Temperature Yesterday

Maximum temperature yesterday: 45 °F (at 3:00 PM)
Minimum temperature yesterday: 27 °F (at 7:00 AM)
Average temperature yesterday: 34 °F

High & Low Weather Summary for the Past Weeks

 TemperatureHumidityPressure
High45 °F (Feb 11, 3:00 PM)100% (Jan 30, 2:00 AM)30.77 "Hg (Jan 30, 2:00 AM)
Low5 °F (Feb 3, 6:00 AM)33% (Feb 6, 9:00 AM)29.62 "Hg (Jan 29, 5:00 PM)
Average28 °F73%30.23 "Hg
* Reported Jan 28 9:00 AM — Feb 12 9:00 AM, Cranbrook, Weather by CustomWeather, © 2016

Note: Actual official high and low records may vary slightly from our data, if they occured in-between our weather recording intervals... More about our weather records

Advertising

Cranbrook Weather History for the Previous 24 Hours

 ConditionsComfort  
Time TempWeatherWind HumidityBarometerVisibility
9:00 AM
Fri, Feb 12
34 °FSprinkles. Mostly cloudy.2 mph93%30.25 "Hg15 mi
8:46 AM34 °FMostly cloudy.3 mph93%30.26 "Hg15 mi
8:00 AM34 °FLight rain. Mostly cloudy.2 mph93%30.26 "Hg15 mi
7:00 AM34 °FOvercast.2 mph87%30.27 "Hg15 mi
6:00 AM34 °FOvercast.2 mph87%30.27 "Hg15 mi
5:00 AM32 °FOvercast.2 mph93%30.29 "Hg15 mi
4:00 AM34 °FPassing clouds.No wind87%30.29 "Hg15 mi
3:00 AM34 °FLight rain. Partly cloudy.5 mph93%30.30 "Hg15 mi
2:00 AM34 °FLight rain. Partly cloudy.2 mph87%30.32 "Hg15 mi
1:00 AM36 °FLight rain. Mostly cloudy.3 mph81%30.33 "Hg15 mi
12:00 AM34 °FMostly cloudy.2 mph87%30.33 "Hg25 mi
11:00 PM
Thu, Feb 11
34 °FOvercast.2 mph81%30.34 "Hg25 mi
10:00 PM34 °FOvercast.3 mph87%30.34 "Hg25 mi
9:00 PM34 °FPassing clouds.No wind81%30.35 "Hg25 mi
8:00 PM34 °FPassing clouds.5 mph81%30.36 "Hg25 mi
7:00 PM37 °FPassing clouds.No wind75%30.35 "Hg25 mi
6:00 PM39 °FPartly sunny.No wind70%30.34 "Hg25 mi
5:00 PM43 °FPartly sunny.2 mph61%30.33 "Hg25 mi
4:00 PM45 °FPartly sunny.5 mph57%30.33 "Hg25 mi
3:00 PM45 °FPartly sunny.5 mph57%30.34 "Hg25 mi
2:00 PM43 °FBroken clouds.5 mph61%30.36 "Hg25 mi
1:00 PM41 °FBroken clouds.5 mph66%30.37 "Hg25 mi
12:00 PM39 °FPartly sunny.3 mph70%30.38 "Hg25 mi
11:00 AM34 °FPartly sunny.3 mph81%30.40 "Hg25 mi
10:00 AM30 °FPartly sunny.3 mph86%30.40 "Hg25 mi
Weather by CustomWeather, © 2016

See weather overviewHow to use our weather pages